Location: Unspecified
(0.0000°N, 0.0000°E)
Time: 02:36:11
(UTC+00:00)

ACS3 Solar Sail - Pass Details

Date: 17 November 2025
Orbit: 887 x 1000 km, 97.3° (Epoch: 14 December)

Event Time Altitude Azimuth Distance (km) Brightness Sun altitude
Exits shadow 03:22:39 13° 200° (SSW) 2,552 4.0 -33.4°
Drops below altitude 10° 03:23:15 10° 199° (SSW) 2,778 4.2 -33.2°
Sets 03:25:47 0° 196° (SSW) 3,738 4.9 -32.6°
